CW5444 Weather Reports


time (UTC)temp
F
wind
direction
speed
knots
gust
knots
rain 1hr
in
rain 24hr
in
rain mn
in
humidity
%
barometer
mb
20260503054424 41 200 1.7 3.5 0.00 0.00 0.00 67 1017.0
20260503053427 41 198 2.6 4.3 0.00 0.00 0.00 69 1017.0
20260503052432 40 225 1.7 2.6 0.00 0.00 0.00 71 1017.0
20260503051413 39 234 0.9 2.6 0.00 0.00 0.00 73 1016.9
20260503050414 38 234 0.9 3.5 0.00 0.00 0.00 76 1016.8
20260503045414 37 242 0.9 5.2 0.00 0.00 0.00 77 1016.7
20260503044435 37 220 0.0 0.0 0.00 0.00 0.00 76 1016.6
20260503043415 38 220 0.0 0.0 0.00 0.00 0.00 76 1016.6
20260503042417 38 220 0.0 0.9 0.00 0.00 0.00 74 1016.4
20260503041422 39 220 0.0 2.6 0.00 0.00 0.00 74 1016.6
20260503040439 38 220 0.9 2.6 0.00 0.00 0.00 75 1016.4
20260503035419 38 220 0.0 1.7 0.00 0.00 0.00 75 1016.5
20260503034418 39 220 0.9 0.9 0.00 0.00 0.00 73 1016.4
20260503033422 40 220 0.9 0.9 0.00 0.00 0.00 71 1016.3
20260503032422 41 220 0.9 1.7 0.00 0.00 0.00 70 1016.3
20260503031424 41 220 0.0 2.6 0.00 0.00 0.00 68 1016.2
20260503030431 42 220 0.9 1.7 0.00 0.00 0.00 68 1016.1
20260503025431 42 220 0.0 0.9 0.00 0.00 0.00 65 1016.1
20260503024452 43 220 0.9 1.7 0.00 0.00 0.00 64 1016.1
20260503023451 43 219 0.9 2.6 0.00 0.00 0.00 64 1016.0
20260503022452 43 219 0.0 1.7 0.00 0.00 0.00 63 1015.9
20260503021432 43 219 0.0 1.7 0.00 0.00 0.00 63 1015.8
20260503020450 44 220 0.0 1.7 0.00 0.00 0.00 62 1015.8
20260503015429 44 226 1.7 2.6 0.00 0.00 0.00 61 1015.8
20260503014429 44 237 0.9 2.6 0.00 0.00 0.00 62 1015.8
20260503013415 44 207 0.9 2.6 0.00 0.00 0.00 62 1015.6
20260503012416 44 195 0.0 1.7 0.00 0.00 0.00 64 1015.6
20260503011418 45 195 0.0 1.7 0.00 0.00 0.00 61 1015.5
20260503010418 45 195 0.9 2.6 0.00 0.00 0.00 59 1015.3
20260503005420 46 195 1.7 2.6 0.00 0.00 0.00 58 1015.5
20260503004420 47 196 0.9 2.6 0.00 0.00 0.00 57 1015.3
20260503003426 47 196 0.0 3.5 0.00 0.00 0.00 55 1015.1
20260503002425 48 226 0.9 1.7 0.00 0.00 0.00 54 1015.0
20260503001427 48 226 1.7 3.5 0.00 0.00 0.00 52 1014.8
20260503000430 49 166 1.7 5.2 0.00 0.00 0.00 52 1014.7
20260502235428 49 216 1.7 3.5 0.00 0.00 0.00 51 1014.8
20260502234428 50 201 1.7 4.3 0.00 0.00 0.00 50 1014.8
20260502233432 51 203 2.6 4.3 0.00 0.00 0.00 50 1014.6
20260502232413 52 262 0.9 5.2 0.00 0.00 0.00 49 1014.4
20260502231413 52 194 1.7 7.0 0.00 0.00 0.00 49 1014.5
20260502230414 52 187 2.6 7.0 0.00 0.00 0.00 49 1014.5
20260502225417 52 315 3.5 7.8 0.00 0.00 0.00 50 1014.5
20260502224418 52 274 2.6 8.7 0.00 0.00 0.00 51 1014.5
20260502223423 52 239 4.3 10.4 0.00 0.00 0.00 50 1014.5
20260502222423 51 44 5.2 12.2 0.00 0.00 0.00 48 1014.4
20260502221426 52 219 5.2 11.3 0.00 0.00 0.00 46 1014.2
20260502220428 53 241 2.6 9.6 0.00 0.00 0.00 45 1014.2
20260502215430 54 245 4.3 10.4 0.00 0.00 0.00 47 1014.1
20260502214429 54 360 5.2 11.3 0.00 0.00 0.00 44 1013.8
20260502213415 53 240 3.5 10.4 0.00 0.00 0.00 48 1013.6
20260502212416 53 257 2.6 7.0 0.00 0.00 0.00 49 1013.6
20260502211436 53 344 2.6 7.0 0.00 0.00 0.00 47 1013.5
20260502210416 52 277 3.5 7.0 0.00 0.00 0.00 48 1013.5
20260502205418 52 236 3.5 7.0 0.00 0.00 0.00 47 1013.5
20260502204419 52 211 2.6 11.3 0.00 0.00 0.00 47 1013.5
20260502203418 52 232 4.3 10.4 0.00 0.00 0.00 47 1013.7
20260502202423 53 307 3.5 8.7 0.00 0.00 0.00 46 1013.7
20260502201443 54 206 6.1 9.6 0.00 0.00 0.00 46 1013.6
20260502200422 54 13 3.5 8.7 0.00 0.00 0.00 51 1013.6
20260502195421 54 274 4.3 7.8 0.00 0.00 0.00 50 1013.7
20260502194424 53 275 4.3 10.4 0.00 0.00 0.00 45 1013.7
20260502193425 53 201 3.5 8.7 0.00 0.00 0.00 46 1013.9
20260502192445 55 243 3.5 7.8 0.00 0.00 0.00 43 1013.9
20260502191424 56 219 4.3 8.7 0.00 0.00 0.00 47 1013.9
20260502190429 56 311 5.2 12.2 0.00 0.00 0.00 43 1013.8
20260502185429 56 253 4.3 10.4 0.00 0.00 0.00 48 1013.7
20260502184451 56 261 3.5 14.8 0.00 0.00 0.00 45 1013.8
20260502183450 55 242 3.5 9.6 0.00 0.00 0.00 43 1013.7
20260502182450 55 178 4.3 13.0 0.00 0.00 0.00 46 1013.8
20260502181428 55 236 3.5 11.3 0.00 0.00 0.00 41 1013.9
20260502180431 55 191 3.5 7.0 0.00 0.00 0.00 43 1013.9
20260502170440 55 275 5.2 9.6 0.00 0.00 0.00 46 1014.2
20260502163426 54 330 2.6 7.0 0.00 0.00 0.00 45 1014.4
20260502162447 54 196 3.5 7.0 0.00 0.00 0.00 49 1014.5
20260502161429 53 208 3.5 7.8 0.00 0.00 0.00 49 1014.6
20260502160429 52 319 3.5 8.7 0.00 0.00 0.00 49 1014.7
20260502151433 51 346 3.5 9.6 0.00 0.00 0.00 53 1015.0
20260502150433 50 277 3.5 7.0 0.00 0.00 0.00 55 1015.1
20260502130427 46 346 2.6 7.0 0.00 0.00 0.00 62 1015.0
20260502123427 45 14 2.6 7.8 0.00 0.00 0.00 62 1014.8
20260502122429 45 350 2.6 5.2 0.00 0.00 0.00 62 1014.8
20260502121430 45 338 2.6 4.3 0.00 0.00 0.00 62 1014.7
20260502120416 44 317 2.6 5.2 0.00 0.00 0.00 64 1014.6
20260502115417 44 342 1.7 3.5 0.00 0.00 0.00 64 1014.7
20260502114418 44 346 0.9 3.5 0.00 0.00 0.00 65 1014.7
20260502113419 44 342 1.7 4.3 0.00 0.00 0.00 64 1014.7
20260502112416 44 340 1.7 3.5 0.00 0.00 0.00 64 1014.8
20260502111436 44 300 1.7 3.5 0.00 0.00 0.00 63 1014.7
20260502110438 44 342 0.9 2.6 0.00 0.00 0.00 64 1014.7
20260502105455 44 340 1.7 2.6 0.00 0.00 0.00 64 1014.5
20260502104437 44 340 1.7 2.6 0.00 0.00 0.00 66 1014.6
20260502103419 45 342 0.9 2.6 0.00 0.00 0.00 68 1014.6
20260502102418 45 336 0.9 2.6 0.00 0.00 0.00 69 1014.5
20260502101417 45 336 1.7 3.5 0.00 0.00 0.00 69 1014.4
20260502100418 45 233 1.7 3.5 0.00 0.00 0.00 70 1014.5
20260502091427 46 232 0.0 1.7 0.00 0.00 0.00 67 1014.8
20260502090448 46 232 0.0 1.7 0.00 0.00 0.00 66 1015.0
20260502071428 48 319 1.7 3.5 0.00 0.00 0.00 69 1014.6
20260502070429 49 360 1.7 4.3 0.00 0.00 0.00 69 1014.4
20260502065431 49 347 1.7 6.1 0.00 0.00 0.00 69 1014.4
20260502064434 49 355 1.7 4.3 0.00 0.00 0.00 69 1014.4
20260502063415 49 346 1.7 4.3 0.00 0.00 0.00 69 1014.6